Location: Carnetin
(48.9010°N, 2.7059°E)
Time: 11:27:11
(UTC+00:00)

USA 229 - Visible Passes

Search period start: 29 May 2022 00:00
Search period end: 08 June 2022 00:00
Orbit: 938 x 1274 km, 63.4° (Epoch: 24 May)

Date Brightness Start Highest point End Pass type
(mag) Time Alt. Az. Time Alt. Az. Time Alt. Az.
29 May 4.5 00:39:42 10° NW 00:46:28 39° WSW 00:49:50 27° SSW visible
29 May 5.6 20:12:12 10° NW 20:17:57 26° NNE 20:24:04 10° ENE visible
29 May 4.6 22:03:38 10° NW 22:10:37 50° NE 22:18:05 10° ESE visible
29 May 4.1 23:54:39 10° NW 00:01:49 57° WSW 00:05:51 29° S visible
30 May 5.6 01:48:23 10° W 01:51:29 13° WSW 01:53:14 12° WSW visible
30 May 5.0 21:18:48 10° NW 21:25:26 39° NNE 21:32:33 10° E visible
30 May 3.9 23:09:45 10° NW 23:17:05 79° SW 23:21:57 25° SSE visible
31 May 5.2 01:01:56 10° WNW 01:07:11 21° WSW 01:09:21 19° SW visible
31 May 5.2 20:33:52 10° NW 20:40:10 33° NNE 20:46:52 10° E visible
31 May 4.0 22:24:55 10° NW 22:32:13 78° NE 22:38:09 19° SE visible
01 Jun 4.8 00:16:24 10° NW 00:22:45 31° WSW 00:25:32 25° SSW visible
01 Jun 4.3 21:40:06 10° NW 21:47:14 59° NE 21:54:23 12° ESE visible
01 Jun 4.4 23:31:14 10° NW 23:38:12 46° WSW 23:41:48 28° S visible
02 Jun 4.7 20:55:16 10° NW 21:02:08 45° NE 21:09:28 10° ESE visible
02 Jun 4.0 22:46:15 10° NW 22:53:31 65° SW 22:58:06 26° SSE visible
03 Jun 5.5 00:39:10 10° WNW 00:43:20 16° WSW 00:45:31 14° SW visible
03 Jun 3.9 22:01:23 10° NW 22:08:43 89° SW 22:14:27 20° SE visible
03 Jun 5.2 23:53:14 10° WNW 23:59:00 25° WSW 00:01:53 20° SW visible
04 Jun 4.1 21:16:33 10° NW 21:23:49 69° NE 21:30:52 13° SE visible
04 Jun 4.7 23:07:53 10° NW 23:14:31 37° WSW 23:18:16 24° SSW visible
05 Jun 4.5 20:31:45 10° NW 20:38:47 53° NE 20:46:19 10° ESE visible
05 Jun 4.3 22:22:48 10° NW 22:29:55 53° WSW 22:34:45 23° S visible
06 Jun 5.8 00:17:10 10° W 00:19:28 12° WSW 00:21:48 10° WSW visible
06 Jun 4.0 21:37:52 10° NW 21:45:11 74° SW 21:51:15 18° SSE visible
06 Jun 5.5 23:30:15 10° WNW 23:35:12 19° WSW 23:38:40 14° SW visible
07 Jun 4.0 20:53:01 10° NW 21:00:21 82° NE 21:07:48 12° SE visible
07 Jun 5.1 22:44:37 10° WNW 22:50:47 29° WSW 22:55:13 17° SSW visible
